Regional Weather Roundup
Issued by NWS Burlington, VT

Home | Current Version | Previous Version | Text Only | Print | Product List | Glossary On
Versions: 1 2 3 4 5 6 7 8 9 10 11 12 13 14 15 16 17 18 19 20 21 22 23 24 25 26 27 28 29 30 31 32 33 34 35 36 37 38 39 40 41 42 43 44 45 46 47 48 49 50
793
ASUS41 KBTV 061310
RWRBTV
VERMONT REGIONAL WEATHER ROUNDUP
NATIONAL WEATHER SERVICE BURLINGTON VT
900 AM EDT FRI MAY 06 2016

NOTE: "FAIR" INDICATES FEW OR NO CLOUDS BELOW 12,000 FEET WITH NO
SIGNIFICANT WEATHER AND/OR OBSTRUCTIONS TO VISIBILITY.

* THESE REPORTS ARE NOT UNDER NWS QUALITY CONTROL AND/OR DO NOT
  REPORT WEATHER SUCH AS PRECIPITATION AND FOG.

VTZ001>019-061400-
_____VERMONT_____


CITY           SKY/WX    TMP DP  RH WIND       PRES   REMARKS
BURLINGTON     FAIR      52  39  61 NW12      29.85R
MONTPELIER     FAIR      51  39  63 N9        29.85R
MORRISVILLE    FAIR      52  38  58 N10       29.85R
ST. JOHNSBURY*   N/A     53  38  56 MISG      29.80R
LYNDONVILLE*   FAIR      51  38  62 NW8       29.83R
MIDDLEBURY*    FAIR      53  42  67 N9        29.81S
RUTLAND*       FAIR      53  41  63 NW6       29.80R
SPRINGFIELD    FAIR      52  39  61 VRB3      29.80R
HIGHGATE*      FAIR      50  40  68 N7        29.87R
NEWPORT*       FAIR      48  39  70 N15       29.85S
BENNINGTON     CLOUDY    53  40  61 N9        29.77R
SUTTON*          N/A     50 N/A N/A MISG        N/A

_____LAKE CHAMPLAIN_____


CITY           SKY/WX    TMP DP  RH WIND       PRES   REMARKS
COLCHESTER RF*   N/A     45  39  81 N18         N/A
DIAMOND ISL*     N/A     46  39  76 N21         N/A

$$

NYZ007-026>031-035-052-083-087-061400-
_____NORTHERN NEW YORK_____


CITY           SKY/WX    TMP DP  RH WIND       PRES   REMARKS
PLATTSBURGH    SUNNY     52  37  56 N12       29.87R
SARANAC LAKE   SUNNY     51  35  54 NE13      29.82S
MASSENA        SUNNY     52  38  58 NE12      29.91R
OGDENSBURG*    SUNNY     54  41  62 N7        29.89R
POTSDAM*       SUNNY     52  43  71 E7        29.89
WATERTOWN      MOSUNNY   53  41  63 NE10      29.84F
FT DRUM        MOSUNNY   51  42  70 NE9       29.83F
ALBANY         CLOUDY    53  40  61 N10       29.78R
GLENS FALLS    MOSUNNY   55  39  54 NE14      29.79R

$$
NHZ002-005-011-061400-
_____NEW HAMPSHIRE_____


CITY           SKY/WX    TMP DP  RH WIND       PRES   REMARKS
LEBANON        MOSUNNY   55  40  56 NE6       29.80R
KEENE          CLOUDY    54  41  62 N3        29.79R
MT WASHINGTON  MOSUNNY   45  37  76 CALM        N/A
PLYMOUTH       FAIR      55  43  64 CALM      29.80R
WHITEFIELD     MOSUNNY   51  38  60 NW5       29.80R

$$

_____REGIONAL QUEBEC LOCATIONS_____


CITY           SKY/WX    TMP DP  RH WIND       PRES   REMARKS
MONTREAL       MOSUNNY   54  37  54 NE14      29.90R
QUEBEC CITY    MOSUNNY   45  37  76 E9        29.92R
SHERBROOKE     SUNNY     52  39  62 E12G17    29.84R

_____REGIONAL ONTARIO LOCATIONS_____


CITY           SKY/WX    TMP DP  RH WIND       PRES   REMARKS
OTTAWA         MOSUNNY   55  37  50 E8        29.91R

______KEY______
VSB  - VISIBILITY IN MILES
WCI  - WIND CHILL INDEX
HX   - HEAT INDEX
$$
NNNN




USA.gov is the U.S. government's official web portal to all federal, state and local government web resources and services.